Year,Month,Day,Hour,Minute,Value (Times are PST for windspeed in km/hr)
2021,09,19,00,00,0.20
2021,09,19,00,01,0.00
2021,09,19,00,02,0.00
2021,09,19,00,03,0.00
2021,09,19,00,04,0.00
2021,09,19,00,05,0.00
2021,09,19,00,06,0.00
2021,09,19,00,07,0.00
2021,09,19,00,08,0.00
2021,09,19,00,09,1.60
2021,09,19,00,10,3.90
2021,09,19,00,11,3.20
2021,09,19,00,12,2.30
2021,09,19,00,13,0.00
2021,09,19,00,14,0.00
2021,09,19,00,15,0.00
2021,09,19,00,16,0.00
2021,09,19,00,17,0.00
2021,09,19,00,18,0.00
2021,09,19,00,19,0.00
2021,09,19,00,20,0.00
2021,09,19,00,21,0.00
2021,09,19,00,22,0.00
2021,09,19,00,23,0.00
2021,09,19,00,24,0.00
2021,09,19,00,25,0.00
2021,09,19,00,26,0.00
2021,09,19,00,27,0.00
2021,09,19,00,28,0.00
2021,09,19,00,29,0.00
2021,09,19,00,30,1.40
2021,09,19,00,31,0.90
2021,09,19,00,32,0.00
2021,09,19,00,33,0.00
2021,09,19,00,34,0.00
2021,09,19,00,35,0.00
2021,09,19,00,36,0.00
2021,09,19,00,37,0.00
2021,09,19,00,38,0.00
2021,09,19,00,39,0.00
2021,09,19,00,40,0.00
2021,09,19,00,41,0.00
2021,09,19,00,42,0.00
2021,09,19,00,43,0.00
2021,09,19,00,44,0.00
2021,09,19,00,45,0.00
2021,09,19,00,46,0.00
2021,09,19,00,47,0.00
2021,09,19,00,48,0.00
2021,09,19,00,49,0.00
2021,09,19,00,50,0.00
2021,09,19,00,51,0.00
2021,09,19,00,52,0.00
2021,09,19,00,53,0.00
2021,09,19,00,54,0.00
2021,09,19,00,55,0.00
2021,09,19,00,56,0.00
2021,09,19,00,57,0.00
2021,09,19,00,58,0.00
2021,09,19,00,59,0.00
2021,09,19,01,00,0.00
2021,09,19,01,01,0.00
2021,09,19,01,02,0.00
2021,09,19,01,03,0.00
2021,09,19,01,04,0.00
2021,09,19,01,05,0.00
2021,09,19,01,06,0.00
2021,09,19,01,07,0.00
2021,09,19,01,08,0.00
2021,09,19,01,09,0.00
2021,09,19,01,10,1.00
2021,09,19,01,11,0.60
2021,09,19,01,12,0.00
2021,09,19,01,13,0.00
2021,09,19,01,14,0.00
2021,09,19,01,15,0.00
2021,09,19,01,16,0.00
2021,09,19,01,17,0.00
2021,09,19,01,18,0.00
2021,09,19,01,19,0.00
2021,09,19,01,20,0.00
2021,09,19,01,21,0.00
2021,09,19,01,22,0.00
2021,09,19,01,23,0.00
2021,09,19,01,24,0.00
2021,09,19,01,25,0.00
2021,09,19,01,26,0.20
2021,09,19,01,27,1.10
2021,09,19,01,28,0.00
2021,09,19,01,29,0.20
2021,09,19,01,30,1.10
2021,09,19,01,31,0.00
2021,09,19,01,32,0.00
2021,09,19,01,33,3.10
2021,09,19,01,34,1.30
2021,09,19,01,35,0.00
2021,09,19,01,36,1.40
2021,09,19,01,37,0.80
2021,09,19,01,38,0.00
2021,09,19,01,39,0.40
2021,09,19,01,40,1.20
2021,09,19,01,41,0.00
2021,09,19,01,42,0.90
2021,09,19,01,43,2.50
2021,09,19,01,44,1.50
2021,09,19,01,45,2.10
2021,09,19,01,46,2.50
2021,09,19,01,47,3.70
2021,09,19,01,48,3.20
2021,09,19,01,49,3.60
2021,09,19,01,50,1.90
2021,09,19,01,51,2.60
2021,09,19,01,52,0.90
2021,09,19,01,53,2.00
2021,09,19,01,54,4.70
2021,09,19,01,55,4.10
2021,09,19,01,56,1.30
2021,09,19,01,57,0.00
2021,09,19,01,58,0.00
2021,09,19,01,59,0.80
2021,09,19,02,00,0.80
2021,09,19,02,01,2.60
2021,09,19,02,02,1.70
2021,09,19,02,03,2.30
2021,09,19,02,04,3.50
2021,09,19,02,05,2.50
2021,09,19,02,06,1.20
2021,09,19,02,07,1.00
2021,09,19,02,08,6.00
2021,09,19,02,09,4.80
2021,09,19,02,10,5.30
2021,09,19,02,11,5.50
2021,09,19,02,12,3.90
2021,09,19,02,13,2.90
2021,09,19,02,14,0.00
2021,09,19,02,15,3.80
2021,09,19,02,16,2.30
2021,09,19,02,17,0.00
2021,09,19,02,18,1.80
2021,09,19,02,19,3.40
2021,09,19,02,20,2.90
2021,09,19,02,21,3.50
2021,09,19,02,22,4.70
2021,09,19,02,23,5.80
2021,09,19,02,24,7.20
2021,09,19,02,25,4.10
2021,09,19,02,26,2.80
2021,09,19,02,27,1.80
2021,09,19,02,28,0.10
2021,09,19,02,29,5.00
2021,09,19,02,30,6.90
2021,09,19,02,31,2.50
2021,09,19,02,32,1.40
2021,09,19,02,33,3.00
2021,09,19,02,34,2.90
2021,09,19,02,35,0.00
2021,09,19,02,36,3.50
2021,09,19,02,37,0.80
2021,09,19,02,38,3.00
2021,09,19,02,39,2.10
2021,09,19,02,40,2.40
2021,09,19,02,41,2.80
2021,09,19,02,42,0.40
2021,09,19,02,43,0.00
2021,09,19,02,44,0.00
2021,09,19,02,45,2.20
2021,09,19,02,46,0.00
2021,09,19,02,47,5.70
2021,09,19,02,48,4.40
2021,09,19,02,49,4.40
2021,09,19,02,50,4.30
2021,09,19,02,51,3.00
2021,09,19,02,52,5.70
2021,09,19,02,53,1.80
2021,09,19,02,54,4.90
2021,09,19,02,55,4.70
2021,09,19,02,56,2.60
2021,09,19,02,57,2.70
2021,09,19,02,58,1.30
2021,09,19,02,59,0.00
2021,09,19,03,00,0.00
2021,09,19,03,01,1.10
2021,09,19,03,02,0.70
2021,09,19,03,03,2.80
2021,09,19,03,04,0.20
2021,09,19,03,05,0.00
2021,09,19,03,06,0.90
2021,09,19,03,07,2.50
2021,09,19,03,08,6.30
2021,09,19,03,09,2.60
2021,09,19,03,10,3.80
2021,09,19,03,11,0.10
2021,09,19,03,12,0.30
2021,09,19,03,13,0.00
2021,09,19,03,14,1.80
2021,09,19,03,15,1.70
2021,09,19,03,16,0.40
2021,09,19,03,17,1.40
2021,09,19,03,18,4.60
2021,09,19,03,19,3.20
2021,09,19,03,20,2.90
2021,09,19,03,21,4.40
2021,09,19,03,22,1.80
2021,09,19,03,23,6.50
2021,09,19,03,24,4.80
2021,09,19,03,25,7.30
2021,09,19,03,26,5.30
2021,09,19,03,27,6.30
2021,09,19,03,28,8.10
2021,09,19,03,29,8.10
2021,09,19,03,30,6.10
2021,09,19,03,31,0.00
2021,09,19,03,32,1.60
2021,09,19,03,33,2.80
2021,09,19,03,34,4.20
2021,09,19,03,35,3.60
2021,09,19,03,36,4.50
2021,09,19,03,37,4.20
2021,09,19,03,38,2.40
2021,09,19,03,39,3.10
2021,09,19,03,40,1.20
2021,09,19,03,41,5.00
2021,09,19,03,42,3.60
2021,09,19,03,43,5.30
2021,09,19,03,44,2.40
2021,09,19,03,45,4.20
2021,09,19,03,46,5.10
2021,09,19,03,47,3.90
2021,09,19,03,48,1.30
2021,09,19,03,49,2.20
2021,09,19,03,50,6.50
2021,09,19,03,51,3.70
2021,09,19,03,52,1.30
2021,09,19,03,53,3.70
2021,09,19,03,54,1.70
2021,09,19,03,55,3.20
2021,09,19,03,56,3.00
2021,09,19,03,57,0.00
2021,09,19,03,58,0.00
2021,09,19,03,59,3.10
2021,09,19,04,00,6.90
2021,09,19,04,01,7.50
2021,09,19,04,02,4.70
2021,09,19,04,03,4.40
2021,09,19,04,04,4.80
2021,09,19,04,05,2.70
2021,09,19,04,06,6.30
2021,09,19,04,07,2.90
2021,09,19,04,08,7.50
2021,09,19,04,09,3.00
2021,09,19,04,10,6.00
2021,09,19,04,11,4.50
2021,09,19,04,12,6.20
2021,09,19,04,13,6.60
2021,09,19,04,14,4.70
2021,09,19,04,15,2.90
2021,09,19,04,16,5.50
2021,09,19,04,17,2.50
2021,09,19,04,18,4.50
2021,09,19,04,19,1.00
2021,09,19,04,20,4.70
2021,09,19,04,21,1.40
2021,09,19,04,22,1.10
2021,09,19,04,23,0.00
2021,09,19,04,24,0.10
2021,09,19,04,25,0.00
2021,09,19,04,26,0.00
2021,09,19,04,27,2.20
2021,09,19,04,28,3.00
2021,09,19,04,29,2.60
2021,09,19,04,30,0.30
2021,09,19,04,31,0.00
2021,09,19,04,32,2.60
2021,09,19,04,33,3.90
2021,09,19,04,34,3.10
2021,09,19,04,35,0.50
2021,09,19,04,36,0.00
2021,09,19,04,37,0.00
2021,09,19,04,38,0.60
2021,09,19,04,39,3.00
2021,09,19,04,40,0.00
2021,09,19,04,41,0.00
2021,09,19,04,42,0.00
2021,09,19,04,43,3.80
2021,09,19,04,44,2.90
2021,09,19,04,45,1.40
2021,09,19,04,46,3.50
2021,09,19,04,47,1.30
2021,09,19,04,48,0.00
2021,09,19,04,49,1.00
2021,09,19,04,50,1.40
2021,09,19,04,51,3.40
2021,09,19,04,52,2.60
2021,09,19,04,53,0.10
2021,09,19,04,54,0.00
2021,09,19,04,55,0.00
2021,09,19,04,56,0.00
2021,09,19,04,57,0.00
2021,09,19,04,58,0.00
2021,09,19,04,59,0.00
2021,09,19,05,00,0.00
2021,09,19,05,01,0.00
2021,09,19,05,02,0.00
2021,09,19,05,03,0.00
2021,09,19,05,04,0.00
2021,09,19,05,05,3.90
2021,09,19,05,06,4.50
2021,09,19,05,07,2.20
2021,09,19,05,08,2.70
2021,09,19,05,09,1.40
2021,09,19,05,10,1.90
2021,09,19,05,11,0.00
2021,09,19,05,12,0.00
2021,09,19,05,13,0.00
2021,09,19,05,14,0.20
2021,09,19,05,15,0.10
2021,09,19,05,16,1.40
2021,09,19,05,17,1.30
2021,09,19,05,18,0.00
2021,09,19,05,19,0.00
2021,09,19,05,20,0.00
2021,09,19,05,21,0.00
2021,09,19,05,22,0.00
2021,09,19,05,23,0.00
2021,09,19,05,24,0.00
2021,09,19,05,25,0.00
2021,09,19,05,26,1.80
2021,09,19,05,27,3.60
2021,09,19,05,28,3.60
2021,09,19,05,29,4.70
2021,09,19,05,30,2.20
2021,09,19,05,31,3.30
2021,09,19,05,32,0.80
2021,09,19,05,33,0.00
2021,09,19,05,34,0.30
2021,09,19,05,35,2.90
2021,09,19,05,36,1.90
2021,09,19,05,37,2.20
2021,09,19,05,38,1.80
2021,09,19,05,39,0.00
2021,09,19,05,40,0.00
2021,09,19,05,41,0.00
2021,09,19,05,42,0.00
2021,09,19,05,43,0.00
2021,09,19,05,44,0.00
2021,09,19,05,45,0.00
2021,09,19,05,46,0.00
2021,09,19,05,47,0.00
2021,09,19,05,48,0.00
2021,09,19,05,49,0.00
2021,09,19,05,50,0.00
2021,09,19,05,51,0.00
2021,09,19,05,52,0.00
2021,09,19,05,53,0.70
2021,09,19,05,54,1.40
2021,09,19,05,55,0.20
2021,09,19,05,56,0.00
2021,09,19,05,57,0.10
2021,09,19,05,58,1.80
2021,09,19,05,59,2.80
2021,09,19,06,00,3.20
2021,09,19,06,01,0.00
2021,09,19,06,02,0.00
2021,09,19,06,03,0.00
2021,09,19,06,04,0.00
2021,09,19,06,05,1.00
2021,09,19,06,06,0.00
2021,09,19,06,07,0.00
2021,09,19,06,08,1.20
2021,09,19,06,09,0.10
2021,09,19,06,10,0.00
2021,09,19,06,11,0.00
2021,09,19,06,12,0.00
2021,09,19,06,13,1.20
2021,09,19,06,14,1.30
2021,09,19,06,15,0.00
2021,09,19,06,16,0.00
2021,09,19,06,17,0.00
2021,09,19,06,18,0.00
2021,09,19,06,19,0.60
2021,09,19,06,20,2.10
2021,09,19,06,21,0.60
2021,09,19,06,22,0.00
2021,09,19,06,23,2.20
2021,09,19,06,24,0.10
2021,09,19,06,25,0.00
2021,09,19,06,26,0.00
2021,09,19,06,27,0.00
2021,09,19,06,28,0.00
2021,09,19,06,29,0.00
2021,09,19,06,30,0.00
2021,09,19,06,31,0.00
2021,09,19,06,32,0.00
2021,09,19,06,33,0.20
2021,09,19,06,34,1.70
2021,09,19,06,35,0.00
2021,09,19,06,36,0.00
2021,09,19,06,37,0.00
2021,09,19,06,38,0.00
2021,09,19,06,39,0.00
2021,09,19,06,40,0.00
2021,09,19,06,41,0.00
2021,09,19,06,42,0.00
2021,09,19,06,43,0.00
2021,09,19,06,44,0.00
2021,09,19,06,45,0.30
2021,09,19,06,46,2.40
2021,09,19,06,47,0.40
2021,09,19,06,48,0.00
2021,09,19,06,49,0.00
2021,09,19,06,50,0.00
2021,09,19,06,51,0.00
2021,09,19,06,52,0.00
2021,09,19,06,53,0.00
2021,09,19,06,54,0.00
2021,09,19,06,55,0.00
2021,09,19,06,56,0.00
2021,09,19,06,57,2.60
2021,09,19,06,58,1.60
2021,09,19,06,59,0.00
2021,09,19,07,00,1.00
2021,09,19,07,01,4.00
2021,09,19,07,02,3.10
2021,09,19,07,03,1.20
2021,09,19,07,04,1.00
2021,09,19,07,05,4.70
2021,09,19,07,06,1.40
2021,09,19,07,07,1.40
2021,09,19,07,08,0.10
2021,09,19,07,09,0.00
2021,09,19,07,10,0.00
2021,09,19,07,11,2.50
2021,09,19,07,12,2.90
2021,09,19,07,13,0.00
2021,09,19,07,14,0.00
2021,09,19,07,15,0.00
2021,09,19,07,16,1.90
2021,09,19,07,17,1.50
2021,09,19,07,18,2.90
2021,09,19,07,19,1.80
2021,09,19,07,20,2.70
2021,09,19,07,21,0.60
2021,09,19,07,22,2.40
2021,09,19,07,23,2.00
2021,09,19,07,24,4.20
2021,09,19,07,25,5.30
2021,09,19,07,26,4.10
2021,09,19,07,27,1.40
2021,09,19,07,28,0.00
2021,09,19,07,29,0.10
2021,09,19,07,30,4.60
2021,09,19,07,31,4.10
2021,09,19,07,32,2.90
2021,09,19,07,33,4.50
2021,09,19,07,34,3.60
2021,09,19,07,35,5.70
2021,09,19,07,36,0.20
2021,09,19,07,37,1.00
2021,09,19,07,38,2.30
2021,09,19,07,39,3.00
2021,09,19,07,40,3.20
2021,09,19,07,41,1.10
2021,09,19,07,42,0.00
2021,09,19,07,43,1.70
2021,09,19,07,44,1.10
2021,09,19,07,45,0.00
2021,09,19,07,46,0.00
2021,09,19,07,47,0.00
2021,09,19,07,48,0.40
2021,09,19,07,49,1.90
2021,09,19,07,50,0.00
2021,09,19,07,51,3.30
2021,09,19,07,52,0.50
2021,09,19,07,53,1.30
2021,09,19,07,54,1.40
2021,09,19,07,55,2.70
2021,09,19,07,56,2.30
2021,09,19,07,57,3.50
2021,09,19,07,58,0.10
2021,09,19,07,59,2.00
2021,09,19,08,00,2.90
2021,09,19,08,01,1.40
2021,09,19,08,02,1.70
2021,09,19,08,03,3.60
2021,09,19,08,04,2.50
2021,09,19,08,05,4.20
2021,09,19,08,06,1.90
2021,09,19,08,07,0.80
2021,09,19,08,08,2.20
2021,09,19,08,09,0.00
2021,09,19,08,10,2.30
2021,09,19,08,11,4.20
2021,09,19,08,12,2.00
2021,09,19,08,13,3.20
2021,09,19,08,14,2.50
2021,09,19,08,15,2.50
2021,09,19,08,16,0.00
2021,09,19,08,17,3.00
2021,09,19,08,18,1.90
2021,09,19,08,19,3.90
2021,09,19,08,20,3.60
2021,09,19,08,21,3.90
2021,09,19,08,22,5.90
2021,09,19,08,23,4.10
2021,09,19,08,24,2.50
2021,09,19,08,25,3.10
2021,09,19,08,26,3.00
2021,09,19,08,27,0.00
2021,09,19,08,28,3.20
2021,09,19,08,29,3.90
2021,09,19,08,30,1.10
2021,09,19,08,31,3.90
2021,09,19,08,32,3.10
2021,09,19,08,33,2.50
2021,09,19,08,34,4.10
2021,09,19,08,35,2.40
2021,09,19,08,36,7.10
2021,09,19,08,37,3.90
2021,09,19,08,38,3.70
2021,09,19,08,39,5.30
2021,09,19,08,40,4.00
2021,09,19,08,41,5.50
2021,09,19,08,42,5.40
2021,09,19,08,43,5.20
2021,09,19,08,44,1.00
2021,09,19,08,45,2.70
2021,09,19,08,46,3.10
2021,09,19,08,47,1.80
2021,09,19,08,48,0.80
2021,09,19,08,49,3.00
2021,09,19,08,50,0.00
2021,09,19,08,51,3.50
2021,09,19,08,52,1.00
2021,09,19,08,53,0.00
2021,09,19,08,54,2.60
2021,09,19,08,55,2.20
2021,09,19,08,56,1.80
2021,09,19,08,57,0.40
2021,09,19,08,58,5.30
2021,09,19,08,59,3.90
2021,09,19,09,00,3.30
2021,09,19,09,01,3.50
2021,09,19,09,02,2.20
2021,09,19,09,03,0.30
2021,09,19,09,04,3.60
2021,09,19,09,05,1.50
2021,09,19,09,06,0.00
2021,09,19,09,07,1.70
2021,09,19,09,08,1.30
2021,09,19,09,09,5.60
2021,09,19,09,10,6.90
2021,09,19,09,11,3.20
2021,09,19,09,12,1.50
2021,09,19,09,13,5.90
2021,09,19,09,14,2.50
2021,09,19,09,15,0.00
2021,09,19,09,16,0.10
2021,09,19,09,17,2.70
2021,09,19,09,18,0.60
2021,09,19,09,19,1.60
2021,09,19,09,20,1.70
2021,09,19,09,21,3.70
2021,09,19,09,22,2.00
2021,09,19,09,23,2.40
2021,09,19,09,24,0.00
2021,09,19,09,25,0.00
2021,09,19,09,26,0.70
2021,09,19,09,27,3.40
2021,09,19,09,28,5.80
2021,09,19,09,29,6.40
2021,09,19,09,30,8.00
2021,09,19,09,31,7.50
2021,09,19,09,32,0.10
2021,09,19,09,33,4.50
2021,09,19,09,34,4.20
2021,09,19,09,35,1.50
2021,09,19,09,36,2.80
2021,09,19,09,37,2.20
2021,09,19,09,38,4.20
2021,09,19,09,39,4.40
2021,09,19,09,40,4.30
2021,09,19,09,41,3.00
2021,09,19,09,42,0.70
2021,09,19,09,43,0.00
2021,09,19,09,44,0.00
2021,09,19,09,45,2.70
2021,09,19,09,46,3.10
2021,09,19,09,47,3.50
2021,09,19,09,48,0.00
2021,09,19,09,49,0.30
2021,09,19,09,50,4.80
2021,09,19,09,51,4.80
2021,09,19,09,52,3.20
2021,09,19,09,53,4.90
2021,09,19,09,54,4.80
2021,09,19,09,55,1.90
2021,09,19,09,56,1.70
2021,09,19,09,57,0.40
2021,09,19,09,58,6.60
2021,09,19,09,59,2.30
2021,09,19,10,00,3.40
2021,09,19,10,01,3.20
2021,09,19,10,02,7.20
2021,09,19,10,03,4.80
2021,09,19,10,04,4.90
2021,09,19,10,05,7.30
2021,09,19,10,06,3.90
2021,09,19,10,07,3.30
2021,09,19,10,08,1.50
2021,09,19,10,09,3.10
2021,09,19,10,10,2.00
2021,09,19,10,11,1.10
2021,09,19,10,12,4.40
2021,09,19,10,13,4.80
2021,09,19,10,14,2.50
2021,09,19,10,15,3.30
2021,09,19,10,16,0.60
2021,09,19,10,17,3.00
2021,09,19,10,18,3.70
2021,09,19,10,19,1.80
2021,09,19,10,20,4.10
2021,09,19,10,21,2.70
2021,09,19,10,22,0.00
2021,09,19,10,23,3.50
2021,09,19,10,24,2.50
2021,09,19,10,25,3.40
2021,09,19,10,26,4.40
2021,09,19,10,27,2.10
2021,09,19,10,28,1.80
2021,09,19,10,29,1.90
2021,09,19,10,30,1.80
2021,09,19,10,31,1.90
2021,09,19,10,32,1.60
2021,09,19,10,33,4.50
2021,09,19,10,34,3.80
2021,09,19,10,35,1.70
2021,09,19,10,36,3.80
2021,09,19,10,37,5.80
2021,09,19,10,38,0.90
2021,09,19,10,39,2.70
2021,09,19,10,40,2.10
2021,09,19,10,41,2.90
2021,09,19,10,42,2.60
2021,09,19,10,43,1.50
2021,09,19,10,44,3.70
2021,09,19,10,45,0.10
2021,09,19,10,46,2.60
2021,09,19,10,47,4.40
2021,09,19,10,48,4.10
2021,09,19,10,49,3.70
2021,09,19,10,50,4.50
2021,09,19,10,51,4.50
2021,09,19,10,52,5.70
2021,09,19,10,53,4.10
2021,09,19,10,54,4.70
2021,09,19,10,55,3.00
2021,09,19,10,56,5.20
2021,09,19,10,57,3.00
2021,09,19,10,58,4.10
2021,09,19,10,59,4.90
2021,09,19,11,00,0.60
2021,09,19,11,01,4.40
2021,09,19,11,02,4.50
2021,09,19,11,03,4.30
2021,09,19,11,04,4.30
2021,09,19,11,05,3.40
2021,09,19,11,06,1.00
2021,09,19,11,07,7.60
2021,09,19,11,08,4.70
2021,09,19,11,09,6.40
2021,09,19,11,10,7.30
2021,09,19,11,11,6.10
2021,09,19,11,12,3.60
2021,09,19,11,13,2.90
2021,09,19,11,14,1.90
2021,09,19,11,15,6.00
2021,09,19,11,16,4.10
2021,09,19,11,17,5.10
2021,09,19,11,18,4.50
2021,09,19,11,19,7.40
2021,09,19,11,20,2.80
2021,09,19,11,21,0.60
2021,09,19,11,22,2.90
2021,09,19,11,23,3.50
2021,09,19,11,24,4.70
2021,09,19,11,25,5.40
2021,09,19,11,26,5.30
2021,09,19,11,27,6.40
2021,09,19,11,28,8.00
2021,09,19,11,29,6.00
2021,09,19,11,30,0.60
2021,09,19,11,31,0.20
2021,09,19,11,32,4.30
2021,09,19,11,33,3.80
2021,09,19,11,34,4.30
2021,09,19,11,35,1.30
2021,09,19,11,36,7.80
2021,09,19,11,37,8.60
2021,09,19,11,38,5.20
2021,09,19,11,39,6.70
2021,09,19,11,40,6.40
2021,09,19,11,41,4.90
2021,09,19,11,42,4.60
2021,09,19,11,43,7.30
2021,09,19,11,44,7.80
2021,09,19,11,45,6.00
2021,09,19,11,46,6.40
2021,09,19,11,47,7.80
2021,09,19,11,48,6.10
2021,09,19,11,49,6.90
2021,09,19,11,50,8.00
2021,09,19,11,51,6.30
2021,09,19,11,52,5.40
2021,09,19,11,53,4.80
2021,09,19,11,54,6.00
2021,09,19,11,55,7.90
2021,09,19,11,56,8.10
2021,09,19,11,57,4.30
2021,09,19,11,58,5.00
2021,09,19,11,59,3.80
2021,09,19,12,00,7.10
2021,09,19,12,01,7.60
2021,09,19,12,02,2.70
2021,09,19,12,03,4.40
2021,09,19,12,04,5.60
2021,09,19,12,05,5.20
2021,09,19,12,06,8.30
2021,09,19,12,07,4.20
2021,09,19,12,08,7.10
2021,09,19,12,09,5.60
2021,09,19,12,10,4.80
2021,09,19,12,11,1.90
2021,09,19,12,12,6.40
2021,09,19,12,13,4.80
2021,09,19,12,14,4.10
2021,09,19,12,15,4.20
2021,09,19,12,16,9.30
2021,09,19,12,17,3.80
2021,09,19,12,18,2.50
2021,09,19,12,19,7.80
2021,09,19,12,20,6.80
2021,09,19,12,21,8.20
2021,09,19,12,22,4.50
2021,09,19,12,23,5.90
2021,09,19,12,24,6.40
2021,09,19,12,25,6.80
2021,09,19,12,26,6.00
2021,09,19,12,27,4.70
2021,09,19,12,28,3.10
2021,09,19,12,29,9.50
2021,09,19,12,30,7.30
2021,09,19,12,31,7.20
2021,09,19,12,32,8.20
2021,09,19,12,33,5.70
2021,09,19,12,34,7.40
2021,09,19,12,35,5.20
2021,09,19,12,36,7.60
2021,09,19,12,37,4.60
2021,09,19,12,38,0.90
2021,09,19,12,39,6.70
2021,09,19,12,40,5.20
2021,09,19,12,41,0.80
2021,09,19,12,42,5.40
2021,09,19,12,43,1.90
2021,09,19,12,44,5.90
2021,09,19,12,45,5.10
2021,09,19,12,46,2.70
2021,09,19,12,47,2.40
2021,09,19,12,48,5.70
2021,09,19,12,49,1.30
2021,09,19,12,50,4.20
2021,09,19,12,51,3.30
2021,09,19,12,52,3.60
2021,09,19,12,53,5.90
2021,09,19,12,54,5.30
2021,09,19,12,55,4.90
2021,09,19,12,56,2.90
2021,09,19,12,57,6.90
2021,09,19,12,58,4.10
2021,09,19,12,59,6.80
2021,09,19,13,00,3.30
2021,09,19,13,01,6.30
2021,09,19,13,02,2.50
2021,09,19,13,03,4.90
2021,09,19,13,04,3.00
2021,09,19,13,05,2.90
2021,09,19,13,06,8.00
2021,09,19,13,07,0.00
2021,09,19,13,08,6.60
2021,09,19,13,09,8.80
2021,09,19,13,10,5.30
2021,09,19,13,11,4.50
2021,09,19,13,12,8.10
2021,09,19,13,13,5.30
2021,09,19,13,14,5.30
2021,09,19,13,15,4.40
2021,09,19,13,16,1.40
2021,09,19,13,17,1.80
2021,09,19,13,18,8.40
2021,09,19,13,19,1.80
2021,09,19,13,20,4.40
2021,09,19,13,21,4.40
2021,09,19,13,22,5.80
2021,09,19,13,23,4.50
2021,09,19,13,24,2.40
2021,09,19,13,25,5.00
2021,09,19,13,26,0.30
2021,09,19,13,27,5.20
2021,09,19,13,28,6.40
2021,09,19,13,29,5.70
2021,09,19,13,30,13.00
2021,09,19,13,31,4.40
2021,09,19,13,32,6.40
2021,09,19,13,33,7.50
2021,09,19,13,34,5.20
2021,09,19,13,35,8.50
2021,09,19,13,36,3.90
2021,09,19,13,37,7.70
2021,09,19,13,38,6.30
2021,09,19,13,39,6.50
2021,09,19,13,40,5.80
2021,09,19,13,41,8.10
2021,09,19,13,42,2.60
2021,09,19,13,43,5.40
2021,09,19,13,44,6.80
2021,09,19,13,45,6.00
2021,09,19,13,46,5.50
2021,09,19,13,47,5.50
2021,09,19,13,48,9.70
2021,09,19,13,49,7.00
2021,09,19,13,50,8.90
2021,09,19,13,51,6.10
2021,09,19,13,52,6.80
2021,09,19,13,53,4.30
2021,09,19,13,54,5.50
2021,09,19,13,55,6.80
2021,09,19,13,56,8.70
2021,09,19,13,57,5.10
2021,09,19,13,58,5.90
2021,09,19,13,59,4.80
2021,09,19,14,00,2.40
2021,09,19,14,01,5.70
2021,09,19,14,02,8.60
2021,09,19,14,03,5.00
2021,09,19,14,04,5.70
2021,09,19,14,05,8.10
2021,09,19,14,06,7.40
2021,09,19,14,07,6.70
2021,09,19,14,08,8.30
2021,09,19,14,09,5.10
2021,09,19,14,10,8.50
2021,09,19,14,11,8.40
2021,09,19,14,12,5.30
2021,09,19,14,13,3.10
2021,09,19,14,14,7.10
2021,09,19,14,15,4.10
2021,09,19,14,16,6.40
2021,09,19,14,17,6.40
2021,09,19,14,18,6.90
2021,09,19,14,19,4.10
2021,09,19,14,20,5.60
2021,09,19,14,21,5.90
2021,09,19,14,22,9.30
2021,09,19,14,23,7.80
2021,09,19,14,24,5.80
2021,09,19,14,25,6.70
2021,09,19,14,26,5.10
2021,09,19,14,27,6.40
2021,09,19,14,28,5.50
2021,09,19,14,29,6.00
2021,09,19,14,30,10.60
2021,09,19,14,31,7.80
2021,09,19,14,32,3.90
2021,09,19,14,33,4.50
2021,09,19,14,34,6.90
2021,09,19,14,35,4.20
2021,09,19,14,36,6.70
2021,09,19,14,37,9.20
2021,09,19,14,38,4.70
2021,09,19,14,39,5.20
2021,09,19,14,40,8.00
2021,09,19,14,41,6.00
2021,09,19,14,42,9.30
2021,09,19,14,43,10.20
2021,09,19,14,44,7.40
2021,09,19,14,45,4.30
2021,09,19,14,46,6.60
2021,09,19,14,47,6.40
2021,09,19,14,48,5.10
2021,09,19,14,49,6.90
2021,09,19,14,50,6.40
2021,09,19,14,51,0.30
2021,09,19,14,52,6.80
2021,09,19,14,53,6.40
2021,09,19,14,54,2.70
2021,09,19,14,55,3.50
2021,09,19,14,56,5.20
2021,09,19,14,57,3.90
2021,09,19,14,58,7.10
2021,09,19,14,59,8.40
2021,09,19,15,00,7.60
2021,09,19,15,01,5.40
2021,09,19,15,02,9.30
2021,09,19,15,03,4.30
2021,09,19,15,04,7.70
2021,09,19,15,05,6.50
2021,09,19,15,06,8.00
2021,09,19,15,07,5.90
2021,09,19,15,08,5.80
2021,09,19,15,09,6.70
2021,09,19,15,10,4.60
2021,09,19,15,11,4.10
2021,09,19,15,12,4.70
2021,09,19,15,13,7.00
2021,09,19,15,14,9.00
2021,09,19,15,15,4.00
2021,09,19,15,16,4.70
2021,09,19,15,17,9.10
2021,09,19,15,18,4.80
2021,09,19,15,19,1.70
2021,09,19,15,20,4.70
2021,09,19,15,21,6.90
2021,09,19,15,22,9.60
2021,09,19,15,23,8.90
2021,09,19,15,24,3.30
2021,09,19,15,25,3.30
2021,09,19,15,26,5.80
2021,09,19,15,27,3.80
2021,09,19,15,28,0.30
2021,09,19,15,29,5.20
2021,09,19,15,30,6.30
2021,09,19,15,31,2.30
2021,09,19,15,32,4.70
2021,09,19,15,33,3.40
2021,09,19,15,34,2.30
2021,09,19,15,35,3.60
2021,09,19,15,36,6.20
2021,09,19,15,37,0.20
2021,09,19,15,38,0.20
2021,09,19,15,39,5.40
2021,09,19,15,40,2.20
2021,09,19,15,41,2.00
2021,09,19,15,42,7.60
2021,09,19,15,43,6.00
2021,09,19,15,44,3.50
2021,09,19,15,45,8.60
2021,09,19,15,46,3.50
2021,09,19,15,47,0.00
2021,09,19,15,48,7.30
2021,09,19,15,49,4.20
2021,09,19,15,50,1.90
2021,09,19,15,51,4.70
2021,09,19,15,52,8.00
2021,09,19,15,53,9.80
2021,09,19,15,54,2.60
2021,09,19,15,55,5.70
2021,09,19,15,56,11.00
2021,09,19,15,57,4.40
2021,09,19,15,58,3.50
2021,09,19,15,59,6.80
2021,09,19,16,00,5.60
2021,09,19,16,01,5.00
2021,09,19,16,02,2.70
2021,09,19,16,03,4.50
2021,09,19,16,04,8.10
2021,09,19,16,05,10.90
2021,09,19,16,06,9.30
2021,09,19,16,07,5.20
2021,09,19,16,08,3.40
2021,09,19,16,09,2.80
2021,09,19,16,10,2.90
2021,09,19,16,11,4.30
2021,09,19,16,12,1.40
2021,09,19,16,13,6.00
2021,09,19,16,14,0.30
2021,09,19,16,15,5.00
2021,09,19,16,16,3.20
2021,09,19,16,17,6.30
2021,09,19,16,18,5.00
2021,09,19,16,19,3.70
2021,09,19,16,20,4.10
2021,09,19,16,21,1.10
2021,09,19,16,22,1.10
2021,09,19,16,23,1.90
2021,09,19,16,24,6.50
2021,09,19,16,25,5.00
2021,09,19,16,26,2.60
2021,09,19,16,27,4.70
2021,09,19,16,28,2.20
2021,09,19,16,29,6.00
2021,09,19,16,30,2.80
2021,09,19,16,31,4.90
2021,09,19,16,32,8.40
2021,09,19,16,33,0.00
2021,09,19,16,34,4.10
2021,09,19,16,35,4.30
2021,09,19,16,36,1.20
2021,09,19,16,37,1.40
2021,09,19,16,38,3.60
2021,09,19,16,39,0.10
2021,09,19,16,40,2.80
2021,09,19,16,41,5.60
2021,09,19,16,42,6.90
2021,09,19,16,43,6.60
2021,09,19,16,44,1.20
2021,09,19,16,45,5.60
2021,09,19,16,46,4.30
2021,09,19,16,47,1.90
2021,09,19,16,48,3.20
2021,09,19,16,49,4.70
2021,09,19,16,50,6.10
2021,09,19,16,51,0.80
2021,09,19,16,52,4.10
2021,09,19,16,53,3.30
2021,09,19,16,54,7.60
2021,09,19,16,55,3.80
2021,09,19,16,56,3.60
2021,09,19,16,57,3.00
2021,09,19,16,58,5.30
2021,09,19,16,59,1.60
2021,09,19,17,00,3.90
2021,09,19,17,01,4.30
2021,09,19,17,02,1.50
2021,09,19,17,03,0.80
2021,09,19,17,04,1.80
2021,09,19,17,05,4.90
2021,09,19,17,06,3.20
2021,09,19,17,07,3.60
2021,09,19,17,08,4.00
2021,09,19,17,09,0.50
2021,09,19,17,10,3.90
2021,09,19,17,11,0.40
2021,09,19,17,12,4.80
2021,09,19,17,13,6.10
2021,09,19,17,14,5.50
2021,09,19,17,15,4.40
2021,09,19,17,16,0.40
2021,09,19,17,17,0.00
2021,09,19,17,18,0.30
2021,09,19,17,19,4.70
2021,09,19,17,20,2.50
2021,09,19,17,21,3.70
2021,09,19,17,22,0.50
2021,09,19,17,23,4.30
2021,09,19,17,24,3.60
2021,09,19,17,25,3.00
2021,09,19,17,26,0.00
2021,09,19,17,27,2.60
2021,09,19,17,28,1.70
2021,09,19,17,29,10.30
2021,09,19,17,30,3.60
2021,09,19,17,31,6.10
2021,09,19,17,32,5.30
2021,09,19,17,33,5.10
2021,09,19,17,34,2.50
2021,09,19,17,35,5.60
2021,09,19,17,36,1.40
2021,09,19,17,37,0.50
2021,09,19,17,38,2.60
2021,09,19,17,39,5.60
2021,09,19,17,40,0.40
2021,09,19,17,41,1.30
2021,09,19,17,42,3.60
2021,09,19,17,43,1.10
2021,09,19,17,44,0.00
2021,09,19,17,45,3.10
2021,09,19,17,46,6.60
2021,09,19,17,47,3.90
2021,09,19,17,48,3.70
2021,09,19,17,49,5.80
2021,09,19,17,50,2.70
2021,09,19,17,51,0.80
2021,09,19,17,52,1.70
2021,09,19,17,53,0.00
2021,09,19,17,54,0.00
2021,09,19,17,55,2.00
2021,09,19,17,56,4.80
2021,09,19,17,57,0.90
2021,09,19,17,58,2.50
2021,09,19,17,59,3.60
2021,09,19,18,00,2.20
2021,09,19,18,01,5.10
2021,09,19,18,02,6.60
2021,09,19,18,03,0.70
2021,09,19,18,04,0.50
2021,09,19,18,05,2.70
2021,09,19,18,06,0.50